Location: Berg
(48.5667°N, 13.9833°E)
Time: 08:48:22
(UTC+00:00)

Cosmos 1892 - Pass Details

Date: 09 April 2020
Orbit: 503 x 526 km, 82.5° (Epoch: 01 June)

Event Time Altitude Azimuth Distance (km) Brightness Sun altitude
Rises 19:55:21 0° 350° (N) 2,675 7.1 -19.8°
Reaches altitude 10° 19:57:31 10° 350° (N) 1,781 6.1 -20.1°
Maximum altitude 20:01:26 90° 61° (ENE) 534 2.6 -20.6°
Enters shadow 20:02:01 63° 170° (S) 591 2.7 -20.6°
